Weather History for Carbondale, IL

Change the Weather History Date:

Monday, September 26, 2011

  Actual Average Record
Temperature  
Mean Temperature 59 °F -  
Max Temperature 71 °F 76 °F 93 °F (1920)
Min Temperature 48 °F 51 °F 30 °F (1928)
Degree Days  
Heating Degree Days 6    
Growing Degree Days 9 (Base 50)    
Moisture  
Dew Point 49 °F    
Average Humidity 78    
Maximum Humidity 100    
Minimum Humidity 41    
Precipitation  
Precipitation 0.01 in - - ()
Sea Level Pressure  
Sea Level Pressure 29.82 in    
Wind  
Wind Speed 6 mph (WSW)    
Max Wind Speed 12 mph    
Max Gust Speed 22 mph    
Visibility 7 miles    
Events      
Averages and records for this station are not official NWS values.
T = Trace of Precipitation, MM = Missing Value Source: NWS Daily Summary

Daily Weather History Graph

Daily Weather History Graph

Search for Another Location

Airport:

Trip Planner

Search our weather history database for the weather conditions in past years. The results will help you decide how hot, cold, wet, or windy it might be!

Date:

Astronomy

Sep. 26, 2011 Rise Set
Actual Time 6:48 AM CDT 6:48 PM CDT
Civil Twilight 6:21 AM CDT 7:14 PM CDT
Nautical Twilight 5:51 AM CDT 7:44 PM CDT
Astronomical Twilight 5:20 AM CDT 8:15 PM CDT
Moon 5:47 AM CDT (9/26) 6:03 PM CDT (9/26)
Length of Visible Light 12h 52m
Length of Day
12h 00m
Waning Crescent, 1% of the Moon is Illuminated
Sep 26
Waning Crescent
Sep 27
New
Oct 3
First Quarter
Oct 11
Full
Oct 19
Last Quarter

Hourly Weather History & Observations

Time (CDT) Temp. Dew Point Humidity Pressure Visibility Wind Dir Wind Speed Gust Speed Precip Events Conditions
12:52 AM 54.0 °F 52.0 °F 93% 29.77 in 7.0 mi West 5.8 mph - N/A   Overcast
1:52 AM 52.0 °F 50.0 °F 93% 29.77 in 6.0 mi Calm Calm - N/A   Clear
2:09 AM 50.0 °F 48.2 °F 94% 29.77 in 1.8 mi SW 3.5 mph - N/A   Clear
2:13 AM 50.0 °F 48.2 °F 94% 29.77 in 1.0 mi SW 3.5 mph - N/A   Mist
2:22 AM 51.8 °F 48.2 °F 88% 29.77 in 2.0 mi SW 6.9 mph - N/A   Scattered Clouds
2:26 AM 51.8 °F 50.0 °F 94% 29.77 in 4.0 mi SW 5.8 mph - N/A   Mostly Cloudy
2:41 AM 51.8 °F 51.8 °F 100% 29.78 in 2.0 mi WSW 4.6 mph - 0.01 in   Overcast
2:52 AM 52.0 °F 51.1 °F 97% 29.78 in 1.5 mi WSW 6.9 mph - 0.01 in   Overcast
3:05 AM 51.8 °F 51.8 °F 100% 29.78 in 3.0 mi WSW 5.8 mph - N/A   Overcast
3:38 AM 51.8 °F 50.0 °F 94% 29.78 in 4.0 mi West 8.1 mph - N/A   Scattered Clouds
4:52 AM 48.9 °F 46.9 °F 93% 29.80 in 4.0 mi WSW 4.6 mph - N/A   Clear
6:52 AM 48.9 °F 46.0 °F 90% 29.83 in 6.0 mi West 4.6 mph - N/A   Clear
7:52 AM 50.0 °F 46.9 °F 89% 29.85 in 6.0 mi SW 4.6 mph - N/A   Clear
8:08 AM 50.0 °F 48.2 °F 94% 29.85 in 8.0 mi SW 3.5 mph - N/A   Scattered Clouds
8:52 AM 54.0 °F 48.9 °F 83% 29.86 in 10.0 mi Calm Calm - N/A   Scattered Clouds
10:52 AM 61.0 °F 50.0 °F 67% 29.88 in 10.0 mi WNW 6.9 mph - N/A   Partly Cloudy
11:52 AM 64.0 °F 51.1 °F 63% 29.88 in 10.0 mi West 9.2 mph - N/A   Clear
12:52 PM 66.9 °F 48.9 °F 52% 29.87 in 10.0 mi West 8.1 mph - N/A   Partly Cloudy
1:52 PM 69.1 °F 48.0 °F 47% 29.84 in 10.0 mi West 11.5 mph - N/A   Partly Cloudy
2:52 PM 68.0 °F 45.0 °F 43% 29.83 in 10.0 mi West 10.4 mph 21.9 mph N/A   Partly Cloudy
3:52 PM 70.0 °F 45.0 °F 41% 29.82 in 10.0 mi West 10.4 mph - N/A   Partly Cloudy
4:52 PM 70.0 °F 45.0 °F 41% 29.82 in 10.0 mi WSW 10.4 mph - N/A   Clear
5:52 PM 68.0 °F 48.0 °F 49% 29.83 in 10.0 mi SW 6.9 mph - N/A   Clear
6:52 PM 62.1 °F 50.0 °F 65% 29.83 in 10.0 mi SSW 3.5 mph - N/A   Clear
7:52 PM 55.9 °F 51.1 °F 84% 29.83 in 10.0 mi South 3.5 mph - N/A   Clear
8:52 PM 54.0 °F 48.9 °F 83% 29.84 in 10.0 mi SSW 6.9 mph - N/A   Clear
9:52 PM 54.0 °F 48.9 °F 83% 29.84 in 10.0 mi SSW 6.9 mph - N/A   Clear
10:52 PM 57.9 °F 48.9 °F 72% 29.83 in 10.0 mi South 8.1 mph - N/A   Clear
11:52 PM 59.0 °F 48.9 °F 69% 29.83 in 10.0 mi SSW 10.4 mph - N/A   Clear